Tracking 29892 objects as of 21-Nov-2024
HD Live streaming from Space Station
objects crossing your sky now

COSMOS 1124 DEB

Track COSMOS 1124 DEB now!


NORAD ID: 48259
Int'l Code: 1979-077J
Perigee: 986.0 km
Apogee: 38,825.3 km
Inclination: 63.4 °
Period: 706.5 minutes
Semi major axis: 26276 km
RCS: Unknown
Launch date: August 28, 1979
Source: Commonwealth of Independent States (former USSR) (CIS)
Launch site: PLESETSK MISSILE AND SPACE COMPLEX (PKMTR)

Note: This is SATELLITE DEBRIS
Your satellite tracking list
Your tracking list is empty




NASA's NSSDC Master Catalog

Two Line Element Set (TLE):
1 48259U 79077J   24323.95547043 -.00000461  00000-0  00000-0 0  9991
2 48259  63.3560 281.8596 7200164  10.4438 358.6496  2.03820041211782
Source of the keplerian elements: AFSPC